Regional Weather Roundup
Issued by NWS

Home | Current Version | Previous Version | Graphics & Text | Print | Product List | Glossary On
Versions: 1 2 3 4 5 6 7 8 9 10 11 12 13 14 15 16 17 18 19 20 21 22 23 24 25 26 27 28 29 30 31 32 33 34 35 36 37 38 39 40 41 42 43 44 45 46 47 48 49 50
000
ASUS43 KTOP 220959
RWRKS

WEATHER ROUNDUP FOR KANSAS
NATIONAL WEATHER SERVICE GOODLAND KS
500 AM CDT WED OCT 22 2014

NOTE:  "FAIR" INDICATES FEW OR NO CLOUDS BELOW 12,000 FEET WITH NO
SIGNIFICANT WEATHER AND/OR OBSTRUCTIONS TO VISIBILITY.

KSZ001>006-013>018-027>032-041>047-221100-
NORTHWEST KANSAS

CITY           SKY/WX    TMP DP  RH WIND       PRES   REMARKS
GOODLAND       MOCLDY    53  47  79 S10       29.95S
HAYS           CLEAR     54  46  76 S7        30.01R
HILL CITY      CLEAR     59  51  75 S9        29.98S
RUSSELL        CLEAR     57  53  86 S12       30.00S
$$

KSZ061>065-074>080-084>089-221100-
SOUTHWEST KANSAS

CITY           SKY/WX    TMP DP  RH WIND       PRES   REMARKS
DODGE CITY     CLEAR     55  48  77 S9        30.04R
ELKHART          N/A     58  50  75 S8          N/A
GARDEN CITY    MOCLDY    57  49  74 S10       30.00S
GREAT BEND     CLEAR     57  50  77 S8        30.04R
LIBERAL        PTCLDY    55  46  71 SE10      30.04S
$$

KSZ066>073-081>083-090>101-221100-
SOUTHEAST KANSAS

CITY           SKY/WX    TMP DP  RH WIND       PRES   REMARKS
CHANUTE        CLEAR     55  49  80 SE7       30.10R
COFFEYVILLE    PTCLDY    55  52  89 CALM      30.09S
HUTCHINSON     CLEAR     56  54  93 SE5       30.06R FOG
NEWTON         CLEAR     57  52  82 SE7       30.09S
PARSONS        MOCLDY    60  53  77 SE6       30.11R
WICHITA INTL   CLEAR     60  56  86 S7        30.06R
WICHITA JABRA  CLEAR     59  57  93 S6        30.07R
WINFIELD       PTCLDY    60  58  92 SE6       30.09R
$$

KSZ007>012-019>026-033>040-048>060-102>105-221100-
NORTHEAST KANSAS

CITY           SKY/WX    TMP DP  RH WIND       PRES   REMARKS
CONCORDIA      CLEAR     59  56  89 S14       30.04R
EMPORIA        CLEAR     53  49  86 SE9       30.10R
LAWRENCE       CLOUDY    56  47  71 SE6       30.13R
MANHATTAN      CLEAR     59  48  67 SE3       30.08R
OLATHE IND     MOCLDY    56  46  69 SE12      30.14R
OLATHE EXE     MOCLDY    55  47  74 SE12      30.13R
SALINA         CLEAR     59  56  89 SE9       30.05R
TOPEKA BILLARD CLOUDY    57  48  72 E6        30.13R
TOPEKA FORBES  CLOUDY    55  46  71 SE6       30.12R
$$



USA.gov is the U.S. government's official web portal to all federal, state and local government web resources and services.